TimeCST,TemperatureF,Dew PointF,Humidity,Sea Level PressureIn,VisibilityMPH,Wind Direction,Wind SpeedMPH,Gust SpeedMPH,PrecipitationIn,Events,Conditions,WindDirDegrees,DateUTC
12:15 AM,44.1,35.1,71,29.73,10.0,East,6.9,-,N/A,,Overcast,90,2013-03-09 06:15:00
12:35 AM,43.3,36.7,77,29.72,4.0,East,6.9,-,N/A,,Drizzle,90,2013-03-09 06:35:00
12:55 AM,41.9,37.9,86,29.72,4.0,ENE,3.5,-,N/A,,Light Drizzle,60,2013-03-09 06:55:00
1:15 AM,41.5,38.5,89,29.71,4.0,NNE,4.6,-,N/A,,Overcast,30,2013-03-09 07:15:00
1:35 AM,41.4,38.5,89,29.70,3.0,North,5.8,-,N/A,,Drizzle,10,2013-03-09 07:35:00
1:55 AM,40.5,37.6,89,29.69,3.0,NNE,8.1,-,N/A,Rain,Light Rain,20,2013-03-09 07:55:00
2:15 AM,39.7,37.4,91,29.69,2.5,NE,8.1,-,N/A,,Overcast,40,2013-03-09 08:15:00
2:35 AM,39.0,36.7,91,29.68,1.8,NNE,8.1,-,N/A,Thunderstorm,Unknown,30,2013-03-09 08:35:00
2:55 AM,37.9,35.8,92,29.69,1.8,NNE,4.6,-,0.01,Thunderstorm,Unknown,30,2013-03-09 08:55:00
3:15 AM,37.4,35.2,92,29.68,2.0,NNE,8.1,-,N/A,Rain-Thunderstorm,Rain,20,2013-03-09 09:15:00
3:35 AM,37.4,35.2,92,29.66,1.5,NNE,6.9,-,N/A,Rain,Rain,20,2013-03-09 09:35:00
3:55 AM,35.6,33.8,93,29.66,2.0,North,8.1,-,N/A,,Drizzle,360,2013-03-09 09:55:00
4:15 AM,34.9,32.9,92,29.64,2.0,NNE,8.1,-,N/A,,Light Drizzle,20,2013-03-09 10:15:00
4:35 AM,34.7,32.5,92,29.64,2.5,NNE,8.1,-,N/A,,Light Drizzle,20,2013-03-09 10:35:00
4:55 AM,34.7,32.5,92,29.63,1.8,NNE,9.2,18.4,N/A,,Light Drizzle,30,2013-03-09 10:55:00
5:15 AM,34.7,32.9,93,29.64,1.5,North,9.2,-,N/A,Thunderstorm,Unknown,360,2013-03-09 11:15:00
5:35 AM,34.7,32.9,93,29.66,1.8,North,9.2,16.1,N/A,,Overcast,360,2013-03-09 11:35:00
5:55 AM,34.3,32.5,93,29.66,1.5,NNE,10.4,-,0.01,Rain,Light Rain,20,2013-03-09 11:55:00
6:15 AM,34.2,32.4,93,29.64,2.0,NNE,12.7,16.1,N/A,Snow,Light Snow,20,2013-03-09 12:15:00
6:35 AM,34.3,32.5,93,29.65,3.0,North,8.1,-,N/A,,Drizzle,10,2013-03-09 12:35:00
6:55 AM,34.2,32.4,93,29.65,4.0,North,12.7,18.4,N/A,,Light Drizzle,10,2013-03-09 12:55:00
7:15 AM,34.0,32.2,93,29.65,2.5,North,8.1,20.7,N/A,Rain,Rain,360,2013-03-09 13:15:00
7:35 AM,33.8,32.0,93,29.65,3.0,North,8.1,-,N/A,,Drizzle,360,2013-03-09 13:35:00
7:55 AM,33.8,32.0,93,29.65,3.0,North,12.7,19.6,N/A,,Light Drizzle,360,2013-03-09 13:55:00
8:15 AM,33.8,32.0,93,29.65,3.0,North,15.0,20.7,N/A,,Overcast,360,2013-03-09 14:15:00
8:35 AM,33.8,32.0,93,29.66,2.5,North,11.5,21.9,N/A,,Overcast,10,2013-03-09 14:35:00
8:55 AM,33.8,32.0,93,29.67,2.5,North,15.0,20.7,N/A,,Overcast,360,2013-03-09 14:55:00
9:15 AM,33.6,32.0,94,29.67,2.5,North,16.1,-,N/A,,Drizzle,360,2013-03-09 15:15:00
9:35 AM,33.4,31.8,94,29.67,3.0,North,12.7,19.6,N/A,,Overcast,360,2013-03-09 15:35:00
9:55 AM,33.3,31.5,93,29.68,5.0,North,18.4,26.5,N/A,,Overcast,360,2013-03-09 15:55:00
10:15 AM,32.9,30.7,92,29.67,3.0,NNW,19.6,27.6,N/A,,Overcast,340,2013-03-09 16:15:00
10:35 AM,32.0,29.3,90,29.68,3.0,North,18.4,25.3,N/A,,Overcast,350,2013-03-09 16:35:00
10:55 AM,31.6,28.6,88,29.69,5.0,North,21.9,26.5,N/A,,Overcast,350,2013-03-09 16:55:00
11:15 AM,31.1,28.0,88,29.69,5.0,North,15.0,25.3,N/A,Snow,Light Snow,350,2013-03-09 17:15:00
11:35 AM,30.9,27.5,87,29.70,4.0,North,17.3,24.2,N/A,Snow,Light Snow,350,2013-03-09 17:35:00
11:55 AM,30.7,27.3,87,29.71,2.5,North,15.0,26.5,0.01,Snow,Light Snow,360,2013-03-09 17:55:00
12:15 PM,30.7,27.7,88,29.69,2.5,North,21.9,25.3,N/A,Snow,Light Snow,350,2013-03-09 18:15:00
12:35 PM,30.2,27.0,88,29.70,1.8,North,18.4,27.6,N/A,Snow,Light Snow,350,2013-03-09 18:35:00
12:55 PM,29.7,26.2,87,29.69,0.8,North,25.3,32.2,N/A,Snow,Light Snow,350,2013-03-09 18:55:00
1:15 PM,29.5,25.7,86,29.70,1.8,North,20.7,31.1,N/A,Snow,Light Snow,350,2013-03-09 19:15:00
1:35 PM,29.3,25.7,86,29.71,3.0,North,19.6,26.5,N/A,Snow,Light Snow,350,2013-03-09 19:35:00
1:55 PM,29.5,25.9,86,29.69,4.0,North,24.2,32.2,N/A,Snow,Light Snow,350,2013-03-09 19:55:00
2:15 PM,28.9,25.3,86,29.70,2.5,North,19.6,31.1,N/A,Snow,Light Snow,350,2013-03-09 20:15:00
2:35 PM,28.9,25.5,87,29.71,1.5,North,24.2,29.9,N/A,Snow,Light Snow,350,2013-03-09 20:35:00
2:55 PM,28.9,25.7,88,29.71,0.8,North,23.0,28.8,N/A,Snow,Light Snow,350,2013-03-09 20:55:00
3:15 PM,29.3,26.2,88,29.73,1.2,North,17.3,25.3,N/A,Snow,Light Snow,350,2013-03-09 21:15:00
3:35 PM,29.8,26.6,88,29.73,1.0,North,18.4,31.1,N/A,Snow,Light Snow,350,2013-03-09 21:35:00
3:55 PM,29.8,26.6,88,29.74,0.5,North,19.6,27.6,0.01,Snow,Light Snow,350,2013-03-09 21:55:00
4:15 PM,29.8,27.0,89,29.74,0.5,North,19.6,25.3,N/A,Snow,Snow,350,2013-03-09 22:15:00
4:35 PM,30.0,27.5,90,29.75,0.2,North,19.6,24.2,N/A,Snow,Snow,350,2013-03-09 22:35:00
4:55 PM,30.2,27.5,90,29.77,0.5,North,17.3,23.0,N/A,Snow,Snow,350,2013-03-09 22:55:00
5:15 PM,30.2,28.0,92,29.77,0.2,North,15.0,24.2,N/A,Snow,Snow,360,2013-03-09 23:15:00
5:35 PM,30.7,28.4,91,29.78,0.2,North,15.0,21.9,N/A,Snow,Snow,360,2013-03-09 23:35:00
5:55 PM,31.6,29.3,91,29.78,0.2,North,23.0,29.9,N/A,Snow,Snow,350,2013-03-09 23:55:00
6:15 PM,31.8,28.8,88,29.79,0.8,North,23.0,33.4,N/A,Snow,Light Snow,360,2013-03-10 00:15:00
6:35 PM,31.8,28.4,87,29.81,1.2,North,20.7,29.9,N/A,Snow,Light Snow,360,2013-03-10 00:35:00
6:55 PM,31.6,28.6,88,29.82,1.2,North,17.3,25.3,N/A,Snow,Light Snow,10,2013-03-10 00:55:00
7:15 PM,31.5,28.8,90,29.83,1.2,North,18.4,25.3,N/A,Snow,Light Snow,360,2013-03-10 01:15:00
7:35 PM,31.5,28.6,89,29.84,1.5,North,18.4,25.3,N/A,Snow,Light Snow,360,2013-03-10 01:35:00
7:55 PM,31.5,28.4,88,29.85,2.0,North,18.4,24.2,N/A,Snow,Light Snow,360,2013-03-10 01:55:00
8:15 PM,31.5,28.4,88,29.87,2.5,North,13.8,19.6,N/A,Snow,Light Snow,360,2013-03-10 02:15:00
8:35 PM,31.5,28.4,88,29.87,2.0,North,20.7,25.3,N/A,Snow,Light Snow,360,2013-03-10 02:35:00
8:55 PM,31.6,28.4,88,29.89,2.0,North,15.0,23.0,N/A,Snow,Light Snow,360,2013-03-10 02:55:00
9:15 PM,32.0,27.5,83,29.89,4.0,North,18.4,33.4,N/A,,Haze,360,2013-03-10 03:15:00
9:35 PM,32.0,27.5,83,29.89,4.0,North,21.9,33.4,N/A,,Haze,360,2013-03-10 03:35:00
9:55 PM,32.0,27.1,82,29.90,3.0,North,26.5,34.5,N/A,Snow,Light Snow,360,2013-03-10 03:55:00
10:15 PM,31.6,27.1,83,29.91,2.5,North,26.5,40.3,N/A,Snow,Light Snow,360,2013-03-10 04:15:00
10:35 PM,31.6,27.3,84,29.93,4.0,North,21.9,34.5,N/A,,Overcast,360,2013-03-10 04:35:00
10:55 PM,31.5,28.2,88,29.93,4.0,North,25.3,36.8,N/A,,Overcast,350,2013-03-10 04:55:00
11:15 PM,30.7,27.5,88,29.93,3.0,North,28.8,40.3,N/A,Snow,Light Snow,350,2013-03-10 05:15:00
11:35 PM,30.2,26.6,86,29.94,1.8,North,31.1,40.3,N/A,Snow,Light Snow,350,2013-03-10 05:35:00
11:55 PM,29.5,26.1,87,29.94,3.0,North,27.6,35.7,N/A,Snow,Light Snow,350,2013-03-10 05:55:00